Location: Chrząstowo
(52.0654°N, 17.1290°E)
Time: 06:57:07
(UTC+01:00)

ISS - Pass Details

Date: 26 January 2019
Orbit: 403 x 411 km, 51.6° (Epoch: 22 February)

Event Time Altitude Azimuth Distance (km) Brightness Sun altitude
Rises 19:12:23 0° 251° (WSW) 2,334 1.2 -25.0°
Reaches altitude 10° 19:14:28 10° 248° (WSW) 1,476 -0.1 -25.4°
Enters shadow 19:16:03 26° 242° (WSW) 861 -1.7 -25.6°
